Hourly Data Report for May 06, 2012

All times are specified in Local Standard Time (LST). Add 1 hour to adjust for Daylight Saving Time where and when it is observed.

LONDON A
ONTARIO

43°01'59.000" N
81°09'04.000" W
278.00 m
6144473
71623
YXU

Download Data

Hourly Data (May 2012)
Hourly Data Report for May 6, 2012
Temp Definition
°C
Dew Point Temp Definition
°C
Rel Hum Definition
%
Wind Dir Definition
10's deg

Wind Spd Definition
km/h
Visibility Definition
km
Stn Press Definition
kPa
Hmdx Definition


Wind Chill Definition


Weather Definition


TIME
00:00 Legend Double Dagger 9.3 2.0 60 6 9 10.0 98.64     LegendNANA
01:00 Legend Double Dagger 8.7 1.9 62 6 8 10.0 98.63     Mainly Clear
02:00 Legend Double Dagger 8.7 0.9 58 7 12 10.0 98.57     LegendNANA
03:00 Legend Double Dagger 8.0 0.7 60 7 10 10.0 98.58     LegendNANA
04:00 Legend Double Dagger 8.4 1.1 60 7 15 10.0 98.59     Mainly Clear
05:00 Legend Double Dagger 8.8 2.2 63 8 12 10.0 98.57     LegendNANA
06:00 Legend Double Dagger 9.7 1.9 58 7 14 10.0 98.63     LegendNANA
07:00 Legend Double Dagger 11.4 2.2 53 8 17 10.0 98.66     Mainly Clear
08:00 Legend Double Dagger 14.1 2.4 45 7 12 10.0 98.76     LegendNANA
09:00 Legend Double Dagger 15.6 1.8 39 6 13 10.0 98.78     LegendNANA
10:00 Legend Double Dagger 16.7 0.5 33 8 22 10.0 98.77     Mainly Clear
11:00 Legend Double Dagger 17.7 2.2 35 9 15 10.0 98.75     LegendNANA
12:00 Legend Double Dagger 18.8 1.9 32 6 15 10.0 98.71     LegendNANA
13:00 Legend Double Dagger 19.9 2.0 30 5 14 10.0 98.64     Mainly Clear
14:00 Legend Double Dagger 20.3 1.4 28 12 13 10.0 98.63     LegendNANA
15:00 Legend Double Dagger 19.7 0.8 28 10 17 10.0 98.62     LegendNANA
16:00 Legend Double Dagger 19.3 -1.1 25 6 10 10.0 98.64     Mainly Clear
17:00 Legend Double Dagger 19.2 -1.2 25 8 16 10.0 98.58     LegendNANA
18:00 Legend Double Dagger 17.8 0.6 31 9 16 10.0 98.44     LegendNANA
19:00 Legend Double Dagger 17.2 -0.4 30 10 19 10.0 98.43     Mostly Cloudy
20:00 Legend Double Dagger 15.5 0.6 36 9 15 10.0 98.40     LegendNANA
21:00 Legend Double Dagger 15.0 0.5 37 8 14 10.0 98.56     LegendNANA
22:00 Legend Double Dagger 14.3 0.6 39 7 13 10.0 98.52     Cloudy
23:00 Legend Double Dagger 13.7 1.4 43 5 10 10.0 98.53     LegendNANA

Notes on Data Quality.

Legend

  • E = Estimated
  • M = Missing
  • NA = Not Available
  • ‡ = Partner data that is not subject to review by the National Climate Archives
Date modified: